Greensboro, NC

6:15 PM EDT on March 24, 2017 (GMT -0400)
Piedmont Triad International

Weather History for KGSO - March, 2014

Change the Weather History Date:

Monday, March 10, 2014

  Actual Average Record
Temperature  
Mean Temperature 52 °F 48 °F  
Max Temperature 71 °F 59 °F 78 °F (1974)
Min Temperature 32 °F 38 °F 15 °F (1932)
Degree Days  
Heating Degree Days 13 17  
Month to date heating degree days 238 181  
Since 1 July heating degree days 3215 3036  
Cooling Degree Days 0 0  
Month to date cooling degree days 0 0  
Year to date cooling degree days 0 0  
Growing Degree Days 3 (Base 50)    
Moisture  
Dew Point 29 °F    
Average Humidity 46    
Maximum Humidity 70    
Minimum Humidity 22    
Precipitation  
Precipitation 0.00 in 0.12 in 1.25 in (1978)
Month to date precipitation 2.54 1.19  
Year to date precipitation 8.76 7.21  
Snow  
Snow 0.00 in 0.00 in 2.00 in (1975)
Month to date snowfall 4.5 0.4  
Since 1 July snowfall 15.1 7.1  
Snow Depth 0.00 in    
Sea Level Pressure  
Sea Level Pressure 29.89 in    
Wind  
Wind Speed 7 mph (WSW)    
Max Wind Speed 23 mph    
Max Gust Speed 28 mph    
Visibility 10 miles    
Events      
T = Trace of Precipitation, MM = Missing Value Source: NWS Daily Summary

Daily Weather History Graph

Daily Weather History Graph

Search for Another Location

Airport or City:

Trip Planner

Search our weather history database for the weather conditions in past years. The results will help you decide how hot, cold, wet, or windy it might be!

Date:

Astronomy

Mar. 10, 2014 Rise Set
Actual Time 7:37 AM EDT 7:22 PM EDT
Civil Twilight 7:12 AM EDT 7:48 PM EDT
Nautical Twilight 6:42 AM EDT 8:18 PM EDT
Astronomical Twilight 6:12 AM EDT 8:48 PM EDT
Moon 2:12 PM EDT (3/10) 3:40 AM EDT (3/10)
Length of Visible Light 12h 36m
Length of Day
11h 45m
Waxing Gibbous, 70% of the Moon is Illuminated
Mar 10
Waxing Gibbous
Mar 16
Full
Mar 23
Last Quarter
Mar 30
New
Apr 7
First Quarter

Hourly Weather History & Observations

Time (EDT) Temp. Windchill Dew Point Humidity Pressure Visibility Wind Dir Wind Speed Gust Speed Precip Events Conditions
12:54 AM 41.0 °F 39.0 °F 28.9 °F 62% 30.01 in 10.0 mi WSW 3.5 mph - N/A   Clear
1:54 AM 42.1 °F - 28.9 °F 60% 30.00 in 10.0 mi Calm Calm - N/A   Clear
2:54 AM 39.9 °F 36.7 °F 30.0 °F 68% 29.99 in 10.0 mi WSW 4.6 mph - N/A   Clear
3:54 AM 42.1 °F 40.2 °F 28.0 °F 58% 29.97 in 10.0 mi West 3.5 mph - N/A   Clear
4:54 AM 35.1 °F 32.2 °F 27.0 °F 72% 29.95 in 10.0 mi WSW 3.5 mph - N/A   Clear
5:54 AM 35.1 °F - 27.0 °F 72% 29.95 in 10.0 mi Calm Calm - N/A   Clear
6:54 AM 36.0 °F 31.1 °F 26.1 °F 67% 29.95 in 10.0 mi West 5.8 mph - N/A   Clear
7:54 AM 36.0 °F - 27.0 °F 70% 29.96 in 10.0 mi Calm Calm - N/A   Partly Cloudy
8:54 AM 45.0 °F 41.8 °F 32.0 °F 60% 29.96 in 10.0 mi SW 5.8 mph - N/A   Partly Cloudy
9:54 AM 50.0 °F - 32.0 °F 50% 29.97 in 10.0 mi SSW 6.9 mph - N/A   Partly Cloudy
10:54 AM 59.0 °F - 28.0 °F 31% 29.95 in 10.0 mi West 11.5 mph - N/A   Partly Cloudy
11:54 AM 61.0 °F - 26.1 °F 26% 29.94 in 10.0 mi West 11.5 mph 19.6 mph N/A   Partly Cloudy
12:54 PM 64.9 °F - 27.0 °F 24% 29.92 in 10.0 mi WSW 10.4 mph - N/A   Partly Cloudy
1:54 PM 66.9 °F - 30.9 °F 26% 29.88 in 10.0 mi WNW 15.0 mph - N/A   Partly Cloudy
2:54 PM 70.0 °F - 30.9 °F 24% 29.83 in 10.0 mi West 17.3 mph 23.0 mph N/A   Scattered Clouds
3:54 PM 69.1 °F - 28.9 °F 22% 29.80 in 10.0 mi West 13.8 mph 20.7 mph N/A   Mostly Cloudy
4:54 PM 70.0 °F - 30.0 °F 23% 29.79 in 10.0 mi West 11.5 mph - N/A   Mostly Cloudy
5:54 PM 70.0 °F - 30.0 °F 23% 29.79 in 10.0 mi WSW 12.7 mph - N/A   Mostly Cloudy
6:54 PM 64.9 °F - 30.9 °F 28% 29.80 in 10.0 mi SW 9.2 mph - N/A   Scattered Clouds
7:54 PM 62.1 °F - 28.9 °F 29% 29.80 in 10.0 mi SW 5.8 mph - N/A   Partly Cloudy
8:54 PM 59.0 °F - 28.9 °F 32% 29.81 in 10.0 mi WSW 4.6 mph - N/A   Partly Cloudy
9:54 PM 55.9 °F - 28.9 °F 36% 29.81 in 10.0 mi SW 4.6 mph - N/A   Clear
10:54 PM 55.0 °F - 30.0 °F 38% 29.81 in 10.0 mi SW 4.6 mph - N/A   Clear
11:54 PM 48.9 °F - 32.0 °F 52% 29.81 in 10.0 mi WSW 6.9 mph - N/A   Clear